TIANMU-1 05

Last updated on Sat Aug 15 2026 00:02:40 GMT+0000 (Coordinated Universal Time)

1 55975U 23039C 26226.59662277 .00009087 00000+0 17152-3 0 9992 2 55975 97.5238 42.5257 0001091 244.8429 115.2708 15.48702503189856
UTC large
Height (km)
Speed (km/s)
/
Latitude / Longitude
Inclination (degrees)
Orbital Period (minutes)
Azimuth
Elevation
Range (km)
Doppler Factor

Next 0 passes for location: London (51.5072 / 0.1276)

No passes found over London.
TIANMU-1 05